[[{"header":{"parameterUnit":"m.s-1","parameterCategory":1,"la1":30.2991,"la2":30.254,"lo1":-89.0895,"lo2":-89.0444,"dy":0.0017,"dx":0.0017,"nx":28,"ny":28,"refTime":"2024-07-14T09:00:00:Z","depth":0,"parameterNumber":2,"parameterNumberName":"U-component_of_WINDS"},"data":[0,0,0,0,0,0,0,0,0,0,0,0,0,0,0,0,0,0,0,0,0,0,0,0,0,0,0,0,0,0,0,0,0,0,0,0,0,0,0,0,0,0,0,0,0,0,0,0,0,0,0,0,0,0,0,0,0,0,2.2155,2.2156,0,2.2308,2.231,2.2312,2.2341,2.234,2.2338,2.2337,2.2499,2.2505,2.251,0,0,0,0,0,0,0,0,0,0,0,0,0,2.1891,2.1896,2.2155,2.2157,2.2158,2.2308,2.231,2.2312,2.2341,2.234,2.2338,2.2337,2.2498,2.2504,2.2511,0,0,0,0,0,0,0,0,0,0,0,0,0,2.2021,2.1897,2.2154,2.2191,2.2196,2.2308,2.231,2.2313,2.2341,2.234,2.2338,2.2336,2.2495,2.2503,2.2512,2.26,0,0,2.2537,2.254,0,0,0,0,0,0,0,0,2.2014,2.2031,2.2184,2.2188,2.2194,2.2303,2.2277,2.2409,2.2342,2.2286,2.2337,2.2335,2.2436,2.2449,2.2482,2.2607,2.2614,2.2537,2.2542,2.2546,2.2548,0,0,0,0,0,0,0,2.2005,2.2025,2.2216,2.2186,2.2192,2.2201,2.2217,2.2302,2.237,2.2291,2.2293,2.2311,2.2439,2.2474,2.2486,2.2616,2.2537,2.2544,2.2549,2.2553,2.2822,2.2825,0,0,0,0,0,0,2.1989,2.2017,2.2211,2.222,2.2097,2.2207,2.2226,2.227,2.2369,2.2382,2.2312,2.2312,2.2461,2.2476,2.2492,2.2602,2.2546,2.2553,2.2558,2.282,2.2823,2.2825,0,0,0,0,0,0,2.1983,2.2006,2.2205,2.2119,2.2145,2.2214,2.2264,2.2274,2.231,2.2385,2.2398,2.2336,2.246,2.248,2.2572,2.2608,2.2557,2.2565,2.2818,2.2821,2.2824,2.2822,0,0,0,0,0,0,2.1975,2.2003,2.2036,2.212,2.215,2.2281,2.2266,2.2279,2.2323,2.2324,2.241,2.2423,2.246,2.256,2.2581,2.2618,2.2571,2.2815,2.2819,2.2823,2.2819,2.2825,2.2829,0,0,0,0,0,2.1966,2.2031,2.2038,2.2061,2.2192,2.2283,2.23,2.234,2.2326,2.236,2.2409,2.242,2.26,2.2569,2.2593,2.2633,2.2813,2.2818,2.2823,2.2817,2.2824,2.2829,0,0,0,0,0,0,2.1951,2.2042,2.2051,2.2145,2.2206,2.2287,2.2332,2.2346,2.2413,2.2411,2.246,2.2479,2.2569,2.261,2.2574,2.2724,2.2706,2.2716,2.2693,2.27,2.2706,2.2694,2.2578,0,0,0,0,0,2.1958,2.2023,2.21,2.2175,2.2205,2.2263,2.2304,2.233,2.2395,2.2422,2.2477,2.2542,2.2613,2.2659,2.2729,2.2825,2.2845,2.2865,2.287,2.2874,2.2882,2.2937,2.2947,2.2842,2.2842,2.2842,0,0,2.1975,2.2033,2.2071,2.2173,2.2224,2.2291,2.2285,2.2356,2.2407,2.2433,2.2523,2.2566,2.2642,2.2736,2.2781,2.2774,2.2915,2.288,2.2883,2.2889,2.2943,2.2953,2.2962,2.2845,2.2845,2.2844,0,0,2.2039,2.2089,2.2157,2.2207,2.2283,2.2321,2.2337,2.2418,2.2447,2.2537,2.2558,2.262,2.2742,2.2795,2.2838,2.2922,2.2936,2.2944,2.2972,2.3024,2.3032,2.304,2.3071,2.3081,2.2952,2.2952,2.2952,0,2.205,2.2151,2.2191,2.2261,2.2306,2.2331,2.2402,2.2449,2.2544,2.2576,2.2566,2.2719,2.2772,2.2879,2.29,2.2934,2.2955,2.2934,2.3028,2.3036,2.3044,2.3073,2.3085,2.2952,2.2952,2.2952,2.2952,0,2.2161,2.2231,2.2277,2.2367,2.2417,2.2487,2.2539,2.2586,2.2607,2.2647,2.2739,2.2803,2.2886,2.2914,2.2936,2.3025,2.3018,2.3018,2.3001,2.3053,2.3082,2.3094,2.2953,2.2953,2.2953,2.2953,0,0,2.2221,2.2331,2.2347,2.2388,2.2474,2.2529,2.2601,2.2681,2.272,2.2785,2.2848,2.295,2.295,2.2998,2.3027,2.3073,2.3136,2.3067,2.307,2.3078,2.3239,2.3239,2.3251,2.3146,2.3148,2.315,2.3233,0,2.2295,2.2422,2.246,2.2568,2.2633,2.2658,2.2721,2.2781,2.282,2.2883,2.2927,2.2999,2.2993,2.3023,2.307,2.3119,2.317,2.3113,2.3205,2.3208,2.3185,2.3266,2.3267,2.3342,2.3244,2.3246,2.3248,0,2.2399,2.2465,2.2578,2.2655,2.2684,2.2739,2.2816,2.2875,2.2944,2.297,2.3024,2.3048,2.3126,2.3104,2.3212,2.3173,2.3213,2.3243,2.3247,2.3257,2.3231,2.3279,2.3367,2.3378,2.3266,2.3264,2.3263,0,2.2431,2.2548,2.2631,2.2665,2.2757,2.2796,2.2836,2.2904,2.2949,2.3017,2.3047,2.3123,2.3165,2.3224,2.3269,2.3249,2.3374,2.3355,2.3398,2.3397,2.3423,2.3421,2.3518,2.3449,2.3448,2.3448,2.3448,0,2.2511,2.2579,2.2646,2.2697,2.2775,2.2819,2.2896,2.2938,2.2997,2.3058,2.3085,2.3142,2.3197,2.3262,2.3298,2.3382,2.3401,2.3425,2.3433,2.3422,2.3419,2.3449,2.3445,2.3451,2.3451,2.345,2.3449,0,2.256,2.2607,2.27,2.2779,2.2801,2.2855,2.2923,2.2975,2.3015,2.3091,2.3112,2.3176,2.3253,2.3304,2.3403,2.3427,2.3519,2.3527,2.3495,2.3499,2.3539,2.3534,2.3659,2.3678,2.3595,2.3596,2.3597,0,2.2607,2.266,2.2745,2.2787,2.2827,2.2895,2.2941,2.2987,2.3034,2.3117,2.3159,2.3238,2.3303,2.3426,2.3482,2.3558,2.3568,2.3606,2.358,2.3567,2.3569,2.3565,2.3571,2.3611,2.3611,2.3612,2.3612,0,2.2687,2.2708,2.2773,2.2846,2.2901,2.2961,2.3022,2.3055,2.3112,2.3164,2.3242,2.3293,2.3394,2.3472,2.3553,2.3597,2.3615,2.362,2.3634,2.3623,2.3603,2.3615,2.3507,2.3617,2.3617,2.3616,2.3616,2.3616,2.2737,2.2785,2.2852,2.2924,2.2974,2.3031,2.3082,2.3129,2.3195,2.3279,2.3303,2.3385,2.3454,2.3564,2.3609,2.3675,2.3671,2.3691,2.3696,2.37,2.3701,2.3592,2.369,2.369,2.369,2.369,2.369,0,2.2818,2.2862,2.2928,2.3011,2.3068,2.3078,2.3146,2.3193,2.3264,2.3326,2.339,2.3481,2.3557,2.3619,2.3697,2.3738,2.3748,2.3758,2.3755,2.3765,2.37,2.368,2.3748,2.3748,2.3748,2.3748,2.3748,2.3748,2.2867,2.2949,2.2978,2.3086,2.313,2.321,2.3248,2.33,2.335,2.3449,2.3512,2.3551,2.3614,2.3697,2.3768,2.3784,2.3812,2.3819,2.3838,2.3776,2.3769,2.3763,2.3745,2.3825,2.3825,2.3897,2.3898,2.3898]},{"header":{"parameterUnit":"m.s-1","parameterCategory":1,"la1":30.2991,"la2":30.254,"lo1":-89.0895,"lo2":-89.0444,"dy":0.0017,"dx":0.0017,"nx":28,"ny":28,"refTime":"2024-07-14T09:00:00:Z","depth":0,"parameterNumber":3,"parameterNumberName":"V-component_of_WINDS"},"data":[0,0,0,0,0,0,0,0,0,0,0,0,0,0,0,0,0,0,0,0,0,0,0,0,0,0,0,0,0,0,0,0,0,0,0,0,0,0,0,0,0,0,0,0,0,0,0,0,0,0,0,0,0,0,0,0,0,0,2.3213,2.3214,0,2.3282,2.3283,2.3283,2.3306,2.3305,2.3305,2.3305,2.3372,2.3374,2.3377,0,0,0,0,0,0,0,0,0,0,0,0,0,2.3095,2.3097,2.3213,2.3214,2.3215,2.3282,2.3283,2.3284,2.3306,2.3305,2.3305,2.3304,2.3372,2.3374,2.3377,0,0,0,0,0,0,0,0,0,0,0,0,0,2.3153,2.3098,2.3213,2.3234,2.3236,2.3282,2.3283,2.3284,2.3306,2.3305,2.3305,2.3304,2.3371,2.3374,2.3377,2.3406,0,0,2.3387,2.3388,0,0,0,0,0,0,0,0,2.315,2.3158,2.323,2.3232,2.3235,2.3285,2.3266,2.3325,2.3306,2.3279,2.3305,2.3304,2.3343,2.3349,2.3363,2.3409,2.3412,2.3387,2.3389,2.339,2.3391,0,0,0,0,0,0,0,2.3146,2.3155,2.324,2.3231,2.3234,2.3238,2.3246,2.3277,2.3313,2.3282,2.3283,2.3291,2.3345,2.336,2.3364,2.3413,2.3387,2.339,2.3392,2.3393,2.3482,2.3482,0,0,0,0,0,0,2.3139,2.3151,2.3238,2.3242,2.3191,2.324,2.3249,2.3269,2.3313,2.3319,2.3292,2.3292,2.3354,2.3361,2.3367,2.3401,2.339,2.3393,2.3395,2.3481,2.3482,2.3483,0,0,0,0,0,0,2.3136,2.3146,2.3235,2.3197,2.3209,2.3243,2.3265,2.3271,2.3286,2.332,2.3326,2.3301,2.3354,2.3362,2.3395,2.3404,2.3395,2.3397,2.3481,2.3482,2.3482,2.3471,0,0,0,0,0,0,2.3133,2.3145,2.3158,2.3197,2.3211,2.3264,2.3266,2.3273,2.3291,2.3293,2.333,2.3336,2.3355,2.339,2.3398,2.3408,2.34,2.348,2.3481,2.3482,2.3471,2.3472,2.3472,0,0,0,0,0,2.3129,2.3152,2.3159,2.3169,2.3228,2.3265,2.3272,2.3294,2.3292,2.3304,2.3326,2.3335,2.3402,2.3394,2.3403,2.3414,2.348,2.3481,2.3482,2.3471,2.3472,2.3472,0,0,0,0,0,0,2.3113,2.3158,2.3166,2.3203,2.323,2.3268,2.3284,2.3294,2.3321,2.3321,2.3346,2.3354,2.3384,2.3402,2.3393,2.3442,2.3441,2.3444,2.3429,2.343,2.3431,2.3426,2.3402,0,0,0,0,0,2.3114,2.3142,2.3179,2.3208,2.3221,2.325,2.3267,2.3281,2.331,2.3321,2.3345,2.3371,2.3398,2.3415,2.3442,2.3473,2.3481,2.3485,2.3485,2.3486,2.3488,2.3503,2.3505,2.3486,2.3486,2.3486,0,0,2.3117,2.3144,2.316,2.3206,2.3228,2.3254,2.326,2.3288,2.3307,2.3325,2.3357,2.3375,2.3406,2.3438,2.3453,2.3453,2.3494,2.3487,2.3487,2.3489,2.3505,2.3506,2.3508,2.3487,2.3487,2.3487,0,0,2.3134,2.3159,2.3185,2.3207,2.324,2.3259,2.3265,2.3301,2.3314,2.3347,2.336,2.3382,2.3428,2.3448,2.3465,2.3486,2.3495,2.3494,2.3496,2.3511,2.3513,2.3514,2.352,2.3522,2.3496,2.3496,2.3496,0,2.3133,2.3174,2.3197,2.3224,2.3242,2.3259,2.3284,2.3304,2.3344,2.3356,2.3356,2.3412,2.3434,2.3469,2.3474,2.3487,2.3493,2.349,2.3511,2.3512,2.3514,2.352,2.3522,2.3495,2.3495,2.3495,2.3495,0,2.317,2.3198,2.3214,2.3253,2.3273,2.3299,2.3323,2.334,2.3352,2.3369,2.3401,2.3427,2.3458,2.3467,2.3479,2.3503,2.3502,2.3506,2.3506,2.3515,2.3521,2.3524,2.3495,2.3495,2.3495,2.3495,0,0,2.3182,2.323,2.3236,2.3252,2.3289,2.331,2.3335,2.3366,2.3379,2.3405,2.3426,2.3462,2.3465,2.3484,2.3497,2.351,2.3523,2.3512,2.3513,2.3512,2.3549,2.3546,2.3548,2.3528,2.3529,2.3529,2.3546,0,2.3203,2.325,2.327,2.3307,2.3332,2.3346,2.3368,2.3391,2.3408,2.343,2.3447,2.3472,2.3475,2.3486,2.3499,2.3518,2.353,2.3517,2.3546,2.3547,2.3538,2.3552,2.3549,2.3564,2.3549,2.3549,2.355,0,2.3235,2.3261,2.3301,2.3332,2.3343,2.3363,2.3391,2.3412,2.3438,2.3448,2.3467,2.348,2.3504,2.3501,2.3534,2.3524,2.3537,2.3547,2.3548,2.3552,2.3549,2.3555,2.357,2.3572,2.3554,2.3553,2.3553,0,2.3238,2.3283,2.3312,2.3326,2.3363,2.3376,2.3392,2.3417,2.3433,2.3457,2.3467,2.3493,2.3508,2.3526,2.3544,2.3541,2.3574,2.3574,2.3583,2.3582,2.359,2.3589,2.3606,2.3598,2.3598,2.3598,2.3598,0,2.326,2.3283,2.3314,2.3331,2.3357,2.3378,2.3402,2.3419,2.344,2.346,2.3474,2.3492,2.3514,2.3534,2.3548,2.3572,2.3578,2.3586,2.359,2.3585,2.3584,2.3594,2.3593,2.3598,2.3598,2.3598,2.3598,0,2.3268,2.329,2.3322,2.3354,2.3362,2.338,2.3406,2.3423,2.3439,2.3463,2.347,2.3495,2.3519,2.3538,2.357,2.3579,2.3603,2.3607,2.3595,2.3597,2.3604,2.3603,2.3628,2.3631,2.3621,2.3621,2.3621,0,2.328,2.3299,2.3332,2.3347,2.3363,2.3386,2.3402,2.3422,2.3438,2.3467,2.3479,2.3504,2.3526,2.3563,2.3583,2.3606,2.361,2.3617,2.3614,2.3608,2.3609,2.3608,2.3609,2.3618,2.3618,2.3618,2.3618,0,2.33,2.3309,2.3332,2.3359,2.3378,2.3399,2.3421,2.3432,2.3455,2.3472,2.3497,2.3513,2.3544,2.3568,2.3593,2.3607,2.3616,2.3618,2.3621,2.3617,2.3609,2.3612,2.3595,2.3618,2.3618,2.3618,2.3618,2.3618,2.331,2.3325,2.3351,2.3376,2.3394,2.3414,2.343,2.3448,2.3469,2.3497,2.3507,2.3532,2.3554,2.3588,2.3603,2.3621,2.3622,2.3627,2.3628,2.3629,2.3628,2.3605,2.3626,2.3626,2.3626,2.3626,2.3626,0,2.3328,2.3345,2.3368,2.3398,2.3416,2.3423,2.3446,2.3461,2.3484,2.3504,2.3524,2.3551,2.3574,2.3594,2.3617,2.3628,2.3632,2.3633,2.3633,2.3636,2.3626,2.3621,2.3629,2.3629,2.3629,2.3629,2.3629,2.3629,2.334,2.3367,2.3379,2.3414,2.343,2.3455,2.3468,2.3485,2.3501,2.3531,2.355,2.3563,2.3583,2.3607,2.3628,2.3633,2.364,2.364,2.3646,2.3637,2.3637,2.3636,2.3631,2.3642,2.3642,2.3654,2.3654,2.3655]}]]